Location: Aula-Vintri
(58.3875°N, 22.4322°E)
Time: 03:49:14
(UTC+00:00)

Cosmos 2263 Rocket - Pass Details

Date: 13 October 2019
Orbit: 825 x 847 km, 71.0° (Epoch: 16 November)

Event Time Altitude Azimuth Distance (km) Brightness Sun altitude
Rises 21:16:10 0° 306° (NW) 3,404 6.0 -38.2°
Reaches altitude 10° 21:19:05 10° 319° (NW) 2,464 5.2 -38.3°
Enters shadow 21:23:19 25° 8° (N) 1,638 4.1 -38.5°
